Flag for Comoros Weather past 2 weeks in Mutsamudu, Comoros

Now
75 °F

Passing clouds.


Feels Like: 76 °F
Forecast: 73 / 76 °F
Wind: 7 mph from Southwest

Location: Dzaoudzi / Pamanzi Mayotte

Current Time: Sep 3, 2014 at 1:25:57 AM

Latest Report: Sep 3, 2014 at 1:00 AM


Visibility: N/A

Pressure: 29.95 "Hg

Humidity: 78%

Dew point: 68 °F

Location of MutsamuduLocation

Historic Weather in Mutsamudu — Graph

°F

Mutsamudu temperature yesterday

Maximum temperature yesterday: 82 °F (at 10:00 AM)
Minimum temperature yesterday: 75 °F (at 12:00 AM)
Average temperature yesterday: 78 °F

Past Weeks' High & Low Weather Summary

 TemperatureHumidityPressure
High86 °F (Aug 23, 11:30 AM)94% (Aug 19, 5:00 AM)30.12 "Hg (Aug 19, 5:00 AM)
Low70 °F (Aug 19, 2:30 AM)54% (Aug 26, 2:00 PM)29.86 "Hg (Aug 23, 4:30 AM)
Average78 °F74%29.97 "Hg
* Reported Midnight between Aug 18 and Aug 19 — Midnight between Sep 2 and Sep 3, Mutsamudu, Weather by CustomWeather, © 2014

Note: Actual official high and low records may vary slightly from our data, if they occured in-between our weather recording intervals... More about our weather records

Advertising

Mutsamudu weather history for previous 24 hours

 ConditionsComfort  
Time TempWeatherWind HumidityBarometerVisibility
12:00 AM
Sep 3
75 °FMild.10 mph74%29.98 "HgN/A
11:30 PM
Sep 2
75 °FMild.8 mph74%29.98 "HgN/A
11:00 PM75 °FMild.7 mph74%29.98 "HgN/A
10:30 PM75 °FMild.7 mph74%29.98 "HgN/A
10:00 PM75 °FMild.7 mph74%30.01 "HgN/A
9:30 PM75 °FMild.7 mph69%29.98 "HgN/A
9:00 PM75 °FMild.8 mph69%29.98 "HgN/A
8:30 PM75 °FMild.8 mph69%29.98 "HgN/A
8:00 PM75 °FMild.10 mph69%29.98 "HgN/A
7:30 PM75 °FPassing clouds.10 mph69%29.98 "HgN/A
7:00 PM77 °FPassing clouds.12 mph65%29.95 "HgN/A
6:30 PM77 °FPassing clouds.13 mph65%29.95 "HgN/A
6:00 PM77 °FPassing clouds.12 mph65%29.95 "HgN/A
5:43 PM77 °FScattered clouds.13 mph65%29.92 "HgN/A
5:00 PM79 °FScattered clouds.15 mph61%29.92 "HgN/A
4:00 PM79 °FPassing clouds.14 mph61%29.92 "HgN/A
3:30 PM81 °FPassing clouds.15 mph58%29.89 "HgN/A
3:00 PM81 °FPassing clouds.15 mph58%29.89 "HgN/A
2:30 PM81 °FScattered clouds.16 mph58%29.89 "HgN/A
2:00 PM82 °FScattered clouds.17 mph55%29.89 "HgN/A
1:41 PM82 °FScattered clouds.17 mph55%29.92 "HgN/A
1:00 PM82 °FScattered clouds.17 mph58%29.92 "HgN/A
12:30 PM81 °FScattered clouds.15 mph62%29.95 "HgN/A
12:00 PM82 °FScattered clouds.15 mph58%29.95 "HgN/A
11:30 AM82 °FScattered clouds.15 mph55%29.95 "HgN/A
11:00 AM81 °FScattered clouds.15 mph58%29.98 "HgN/A
10:30 AM82 °FScattered clouds.17 mph55%29.98 "HgN/A
10:00 AM82 °FScattered clouds.17 mph55%29.98 "HgN/A
9:30 AM81 °FScattered clouds.20 mph58%29.98 "HgN/A
9:00 AM81 °FScattered clouds.20 mph58%29.98 "HgN/A
8:30 AM79 °FScattered clouds.20 mph61%29.98 "HgN/A
8:00 AM79 °FScattered clouds.20 mph61%29.98 "HgN/A
7:30 AM79 °FScattered clouds.20 mph61%29.95 "HgN/A
7:00 AM77 °FScattered clouds.20 mph69%29.95 "HgN/A
6:30 AM77 °FScattered clouds.18 mph65%29.95 "HgN/A
6:00 AM75 °FPassing clouds.21 mph74%29.95 "HgN/A
5:36 AM75 °FPassing clouds.16 mph74%29.95 "HgN/A
5:05 AM75 °FPassing clouds.17 mph74%29.92 "HgN/A
4:30 AM75 °FPassing clouds.16 mph69%29.92 "HgN/A
4:00 AM75 °FMild.18 mph69%29.92 "HgN/A
3:30 AM75 °FMild.20 mph69%29.92 "HgN/A
3:00 AM75 °FMild.20 mph69%29.92 "HgN/A
2:30 AM75 °FMild.20 mph69%29.92 "HgN/A
2:00 AM75 °FMild.20 mph69%29.95 "HgN/A
1:30 AM75 °FMild.21 mph74%29.95 "HgN/A
1:00 AM75 °FMild.20 mph74%29.95 "HgN/A
Weather by CustomWeather, © 2014

See weather overviewHow to use our weather pages